When you browse on this site, cookies collect data to enhance your experience and personalize the content and advertising you see.
Visit our Privacy Policy to learn more. By continuing to use the site, you agree to this use of cookies and data.
  • In Hungary
  • List of Countries
  • For 7 days
  • Water Temperature
  • Weather Map
  • News
  • Weather Widgets
  • user-avatar
    Login

    Hourly Weather Sava

    Today, 19 November, Tuesday

    Time Temperature Precipitation Wind Pressure Humidity
    00:00 +14°C° 0 mm 5 mps 754 mmHg 77%
    01:00 +14°C° 0 mm 5 mps 754 mmHg 78%
    02:00 +14°C° 0 mm 5 mps 754 mmHg 78%
    03:00 +14°C° 0 mm 6 mps 754 mmHg 79%
    04:00 +14°C° 0 mm 6 mps 754 mmHg 79%
    05:00 +14°C° 0 mm 5 mps 754 mmHg 79%
    06:00 +13°C° 0 mm 5 mps 754 mmHg 79%
    07:00 +13°C° 0 mm 5 mps 754 mmHg 79%
    08:00 +15°C° 0 mm 5 mps 754 mmHg 74%
    09:00 +16°C° 0 mm 5 mps 754 mmHg 68%
    10:00 +17°C° 0 mm 6 mps 754 mmHg 63%
    11:00 +19°C° 0 mm 5 mps 754 mmHg 62%
    12:00 +19°C° 0 mm 5 mps 753 mmHg 62%
    13:00 +19°C° 0 mm 4 mps 753 mmHg 62%
    14:00 +19°C° 0.1 mm 4 mps 752 mmHg 65%
    15:00 +18°C° 0.1 mm 3 mps 752 mmHg 69%
    16:00 +17°C° 0.1 mm 3 mps 751 mmHg 72%
    17:00 +17°C° 0.1 mm 3 mps 751 mmHg 73%
    18:00 +17°C° 0.1 mm 3 mps 751 mmHg 74%
    19:00 +15°C° 0.1 mm 4 mps 751 mmHg 75%
    20:00 +15°C° 0.4 mm 4 mps 751 mmHg 78%
    21:00 +15°C° 0.4 mm 4 mps 751 mmHg 81%
    22:00 +15°C° 0.4 mm 5 mps 751 mmHg 85%
    23:00 +15°C° 0.6 mm 5 mps 750 mmHg 83%

    Tomorrow, 20 November, Wednesday

    Time Temperature Precipitation Wind Pressure Humidity
    00:00 +15°C° 0.6 mm 5 mps 750 mmHg 82%
    01:00 +15°C° 0.6 mm 6 mps 749 mmHg 81%
    02:00 +14°C° 0.1 mm 5 mps 749 mmHg 80%
    03:00 +14°C° 0.1 mm 5 mps 749 mmHg 79%
    04:00 +13°C° 0.1 mm 5 mps 749 mmHg 78%
    05:00 +13°C° 0 mm 4 mps 749 mmHg 76%
    06:00 +13°C° 0 mm 4 mps 750 mmHg 75%
    07:00 +12°C° 0 mm 3 mps 750 mmHg 73%
    08:00 +14°C° 0 mm 4 mps 750 mmHg 69%
    09:00 +15°C° 0 mm 4 mps 751 mmHg 66%
    10:00 +16°C° 0 mm 5 mps 751 mmHg 62%
    11:00 +17°C° 0 mm 4 mps 751 mmHg 60%
    12:00 +18°C° 0 mm 4 mps 751 mmHg 58%
    13:00 +18°C° 0 mm 4 mps 751 mmHg 56%
    14:00 +18°C° 0 mm 4 mps 751 mmHg 59%
    15:00 +17°C° 0 mm 3 mps 751 mmHg 61%
    16:00 +17°C° 0 mm 3 mps 752 mmHg 63%
    17:00 +16°C° 0 mm 3 mps 752 mmHg 65%
    18:00 +14°C° 0 mm 3 mps 752 mmHg 67%
    19:00 +14°C° 0 mm 3 mps 752 mmHg 70%
    20:00 +14°C° 0 mm 3 mps 752 mmHg 71%
    21:00 +13°C° 0 mm 3 mps 752 mmHg 73%
    22:00 +13°C° 0 mm 3 mps 753 mmHg 75%
    23:00 +13°C° 0 mm 3 mps 752 mmHg 75%

    Day after tomorrow, 21 November, Thursday

    Time Temperature Precipitation Wind Pressure Humidity
    00:00 +14°C° 0 mm 2 mps 752 mmHg 75%
    01:00 +14°C° 0 mm 2 mps 752 mmHg 76%
    02:00 +14°C° 0 mm 2 mps 752 mmHg 77%
    03:00 +13°C° 0 mm 2 mps 752 mmHg 78%
    04:00 +13°C° 0 mm 2 mps 752 mmHg 80%
    05:00 +13°C° 0 mm 2 mps 752 mmHg 80%
    06:00 +13°C° 0 mm 2 mps 752 mmHg 80%
    07:00 +13°C° 0 mm 2 mps 752 mmHg 80%
    08:00 +14°C° 0 mm 2 mps 752 mmHg 76%
    09:00 +16°C° 0 mm 3 mps 752 mmHg 73%
    10:00 +17°C° 0 mm 3 mps 752 mmHg 70%
    11:00 +17°C° 0 mm 3 mps 752 mmHg 65%
    12:00 +17°C° 0 mm 2 mps 752 mmHg 61%
    13:00 +18°C° 0 mm 2 mps 752 mmHg 57%
    14:00 +17°C° 0 mm 2 mps 752 mmHg 61%
    15:00 +16°C° 0 mm 1 mps 751 mmHg 64%
    16:00 +15°C° 0 mm 1 mps 751 mmHg 68%
    17:00 +15°C° 0 mm 1 mps 751 mmHg 70%
    18:00 +14°C° 0 mm 1 mps 751 mmHg 73%
    19:00 +13°C° 0 mm 0 mps 752 mmHg 76%
    20:00 +14°C° 0 mm 1 mps 752 mmHg 76%
    21:00 +13°C° 0 mm 1 mps 752 mmHg 77%
    22:00 +13°C° 0 mm 1 mps 752 mmHg 77%
    23:00 +13°C° 0 mm 2 mps 752 mmHg 78%

    22 November, Friday

    Time Temperature Precipitation Wind Pressure Humidity
    00:00 +13°C° 0 mm 2 mps 752 mmHg 79%
    01:00 +13°C° 0 mm 2 mps 752 mmHg 80%
    02:00 +13°C° 0 mm 2 mps 752 mmHg 79%
    03:00 +13°C° 0 mm 2 mps 752 mmHg 78%
    04:00 +13°C° 0 mm 2 mps 751 mmHg 77%
    05:00 +13°C° 0 mm 2 mps 752 mmHg 77%
    06:00 +12°C° 0 mm 2 mps 752 mmHg 76%
    07:00 +12°C° 0 mm 2 mps 752 mmHg 75%
    08:00 +13°C° 0 mm 2 mps 752 mmHg 69%
    09:00 +15°C° 0 mm 1 mps 753 mmHg 63%
    10:00 +16°C° 0 mm 1 mps 753 mmHg 58%
    11:00 +18°C° 0 mm 1 mps 753 mmHg 55%
    12:00 +18°C° 0 mm 1 mps 753 mmHg 53%
    13:00 +18°C° 0 mm 1 mps 753 mmHg 51%
    14:00 +18°C° 0 mm 1 mps 752 mmHg 55%
    15:00 +16°C° 0 mm 1 mps 752 mmHg 60%
    16:00 +15°C° 0 mm 1 mps 752 mmHg 64%
    17:00 +15°C° 0 mm 1 mps 752 mmHg 67%
    18:00 +14°C° 0 mm 1 mps 752 mmHg 69%
    19:00 +14°C° 0 mm 1 mps 753 mmHg 71%
    20:00 +13°C° 0 mm 1 mps 753 mmHg 72%
    21:00 +13°C° 0 mm 2 mps 753 mmHg 74%
    22:00 +13°C° 0 mm 2 mps 753 mmHg 75%
    23:00 +13°C° 0 mm 2 mps 753 mmHg 74%

    23 November, Saturday

    Time Temperature Precipitation Wind Pressure Humidity
    00:00 +13°C° 0 mm 2 mps 753 mmHg 73%
    01:00 +12°C° 0 mm 3 mps 752 mmHg 72%
    02:00 +12°C° 0 mm 3 mps 752 mmHg 72%
    03:00 +12°C° 0 mm 3 mps 752 mmHg 72%
    04:00 +12°C° 0 mm 3 mps 752 mmHg 72%
    05:00 +12°C° 0 mm 3 mps 752 mmHg 73%
    06:00 +12°C° 0 mm 3 mps 752 mmHg 74%
    07:00 +12°C° 0 mm 4 mps 752 mmHg 75%
    08:00 +13°C° 0 mm 4 mps 752 mmHg 71%
    09:00 +15°C° 0 mm 5 mps 752 mmHg 67%
    10:00 +16°C° 0 mm 5 mps 752 mmHg 62%
    11:00 +17°C° 0 mm 5 mps 752 mmHg 62%
    12:00 +17°C° 0 mm 6 mps 751 mmHg 61%
    13:00 +19°C° 0 mm 6 mps 751 mmHg 61%
    14:00 +17°C° 0 mm 6 mps 751 mmHg 65%
    15:00 +17°C° 0 mm 5 mps 750 mmHg 68%
    16:00 +16°C° 0 mm 5 mps 750 mmHg 72%
    17:00 +15°C° 0 mm 5 mps 750 mmHg 76%
    18:00 +15°C° 0 mm 5 mps 750 mmHg 79%
    19:00 +14°C° 0 mm 5 mps 750 mmHg 83%
    20:00 +14°C° 0.1 mm 5 mps 750 mmHg 84%
    21:00 +14°C° 0.1 mm 5 mps 750 mmHg 85%
    22:00 +14°C° 0.1 mm 5 mps 749 mmHg 85%
    23:00 +14°C° 0.5 mm 6 mps 749 mmHg 85%

    24 November, Sunday

    Time Temperature Precipitation Wind Pressure Humidity
    00:00 +15°C° 0.5 mm 6 mps 749 mmHg 84%
    01:00 +15°C° 0.5 mm 7 mps 749 mmHg 84%
    02:00 +15°C° 0.7 mm 7 mps 748 mmHg 83%
    03:00 +15°C° 0.7 mm 7 mps 748 mmHg 83%
    04:00 +15°C° 0.7 mm 8 mps 748 mmHg 83%
    05:00 +15°C° 0.9 mm 8 mps 747 mmHg 81%
    06:00 +15°C° 0.9 mm 8 mps 747 mmHg 80%
    07:00 +15°C° 0.9 mm 8 mps 747 mmHg 78%
    08:00 +15°C° 0.6 mm 7 mps 748 mmHg 76%
    09:00 +16°C° 0.6 mm 7 mps 748 mmHg 74%
    10:00 +17°C° 0.6 mm 6 mps 748 mmHg 72%
    11:00 +16°C° 1.8 mm 7 mps 748 mmHg 77%
    12:00 +15°C° 1.8 mm 7 mps 748 mmHg 82%
    13:00 +15°C° 1.8 mm 8 mps 747 mmHg 88%
    14:00 +15°C° 0.5 mm 8 mps 748 mmHg 86%
    15:00 +15°C° 0.5 mm 8 mps 748 mmHg 85%
    16:00 +15°C° 0.5 mm 7 mps 748 mmHg 84%
    17:00 +15°C° 0.2 mm 7 mps 748 mmHg 84%
    18:00 +14°C° 0.2 mm 6 mps 748 mmHg 83%
    19:00 +14°C° 0.2 mm 6 mps 749 mmHg 83%
    20:00 +14°C° 0 mm 6 mps 749 mmHg 82%
    21:00 +14°C° 0 mm 6 mps 749 mmHg 82%
    22:00 +14°C° 0 mm 6 mps 749 mmHg 81%
    23:00 +14°C° 0 mm 6 mps 750 mmHg 79%
    Show more